[[[{"header":{"parameterUnit":"kt","parameterCategory":2,"dx":1,"dy":1,"la1":30.253999710083008,"la2":30.299108505249023,"lo1":-89.0895004272461,"lo2":-89.04439544677734,"nx":28,"ny":28,"refTime":"2022-10-30T21:00:00:Z","depth":0,"parameterNumber":1,"parameterNumberName":"U-component_of_WINDS"},"data":[1.8499,1.8547,1.8577,1.8646,1.8685,1.8738,1.8767,1.8807,1.8847,1.8915,1.8959,1.8995,1.9048,1.911,1.916,1.9176,1.9195,1.919,1.9209,1.9203,1.9205,1.9206,1.9196,1.9193,1.9193,1.921,1.921,1.921,1.8493,1.8531,1.8576,1.8641,1.868,1.8703,1.8757,1.8788,1.8835,1.8885,1.8931,1.8993,1.9046,1.9103,1.916,1.9184,1.9199,1.9197,1.9196,1.9205,1.92,1.9189,1.9184,1.9184,1.9184,1.9184,1.9184,1.9184,1.8489,1.8517,1.8573,1.8623,1.8664,1.8707,1.8739,1.8782,1.8827,1.889,1.8918,1.8972,1.9029,1.9113,1.9149,1.9193,1.9201,1.9209,1.9211,1.9213,1.921,1.9182,1.9204,1.9204,1.9205,1.9205,1.9205,0,1.8496,1.852,1.8565,1.8619,1.8657,1.8703,1.875,1.877,1.8831,1.8866,1.892,1.8956,1.9028,1.9083,1.9144,1.9181,1.921,1.9216,1.9222,1.9209,1.919,1.9201,1.9192,1.9215,1.9215,1.9216,1.9216,1.9216,1.8495,1.8524,1.8597,1.8625,1.8658,1.8703,1.8736,1.8787,1.882,1.8886,1.8909,1.8964,1.9011,1.9093,1.9145,1.92,1.9214,1.922,1.9223,1.9209,1.9215,1.9213,1.9217,1.9218,1.9218,1.9218,1.9217,0,1.8492,1.8542,1.8595,1.8666,1.8685,1.8712,1.8773,1.8804,1.8843,1.889,1.8904,1.8966,1.9019,1.9071,1.9141,1.9167,1.9215,1.9228,1.9196,1.9201,1.9212,1.921,1.9236,1.9243,1.9246,1.9246,1.9246,0,1.8511,1.8546,1.8618,1.8647,1.8688,1.8739,1.8779,1.8817,1.8866,1.8904,1.8944,1.8979,1.904,1.9083,1.912,1.9169,1.9182,1.9205,1.9215,1.9202,1.9199,1.9221,1.9221,1.9235,1.9235,1.9235,1.9235,0,1.8501,1.8581,1.8627,1.8654,1.8733,1.8754,1.8788,1.8844,1.8876,1.8926,1.8947,1.9002,1.9032,1.9075,1.9123,1.9123,1.9183,1.9194,1.9207,1.9205,1.9218,1.9216,1.9226,1.9234,1.9234,1.9234,1.9234,0,1.8524,1.8572,1.8632,1.8699,1.8718,1.8749,1.8806,1.8844,1.89,1.8926,1.8966,1.8999,1.9046,1.9052,1.9117,1.9104,1.9131,1.9157,1.9159,1.9167,1.9173,1.9172,1.9175,1.9178,1.9174,1.9173,1.9173,0,1.8499,1.8573,1.8617,1.8673,1.8714,1.8757,1.8793,1.8841,1.8878,1.8919,1.8961,1.9008,1.9023,1.9046,1.9071,1.9116,1.9133,1.9115,1.9176,1.9178,1.916,1.9163,1.9151,1.9169,1.9167,1.9168,1.9168,0,1.8486,1.8581,1.8588,1.8621,1.8691,1.8726,1.8767,1.8824,1.8849,1.8899,1.8935,1.9002,1.9017,1.9053,1.9087,1.911,1.9123,1.9123,1.9126,1.9122,1.9168,1.9156,1.9159,1.9141,1.9141,1.9142,1.9163,0,1.8511,1.8554,1.8574,1.8643,1.8678,1.8716,1.877,1.88,1.8828,1.8866,1.8921,1.8974,1.9034,1.9051,1.9079,1.9116,1.9118,1.9133,1.9144,1.9145,1.9154,1.9157,1.9127,1.9127,1.9128,1.9128,0,0,1.8475,1.8538,1.8585,1.8626,1.8658,1.8702,1.8738,1.8775,1.8848,1.887,1.8876,1.8979,1.9022,1.9083,1.9087,1.9111,1.9123,1.9121,1.9144,1.9146,1.9147,1.9155,1.9158,1.9129,1.913,1.913,1.913,0,1.8495,1.8536,1.857,1.861,1.8671,1.871,1.8718,1.8787,1.8813,1.8866,1.8902,1.8941,1.9022,1.9064,1.9095,1.9115,1.9141,1.9129,1.9121,1.9148,1.9148,1.9149,1.9157,1.9159,1.9131,1.9131,1.9131,0,1.8493,1.8542,1.8564,1.8639,1.8679,1.8721,1.8745,1.8787,1.8819,1.8866,1.8918,1.8956,1.9016,1.9065,1.909,1.9097,1.9153,1.9145,1.9143,1.9147,1.9176,1.9177,1.9178,1.9168,1.9168,1.9168,0,0,1.8503,1.8543,1.8612,1.8647,1.867,1.8728,1.8756,1.8786,1.8839,1.8859,1.8908,1.8958,1.9006,1.9036,1.9084,1.913,1.9148,1.9147,1.9146,1.9144,1.9147,1.9175,1.9176,1.9167,1.9167,1.9167,0,0,1.8508,1.859,1.8608,1.8655,1.8703,1.8775,1.8795,1.882,1.8868,1.887,1.8925,1.8941,1.8989,1.9024,1.9013,1.9089,1.9098,1.9102,1.9064,1.9063,1.9061,1.9052,1.9046,0,0,0,0,0,1.8556,1.8579,1.8596,1.8611,1.8707,1.8766,1.8778,1.8824,1.8829,1.8844,1.8889,1.8915,1.9029,1.902,1.9036,1.9049,1.9162,1.9163,1.9164,1.9126,1.9124,1.9122,0,0,0,0,0,0,1.8563,1.8582,1.8595,1.8667,1.8689,1.8765,1.8785,1.8798,1.8829,1.8833,1.8905,1.8917,1.8958,1.9016,1.9029,1.904,1.9042,1.9163,1.9163,1.9164,1.9125,1.9123,1.9122,0,0,0,0,0,1.8568,1.8584,1.8724,1.8667,1.8686,1.8752,1.8784,1.8795,1.882,1.889,1.8902,1.8852,1.8957,1.8972,1.9024,1.9033,1.9033,1.9037,1.9163,1.9164,1.9164,1.9124,0,0,0,0,0,0,1.8572,1.8595,1.8729,1.8737,1.8661,1.8749,1.8764,1.8793,1.8876,1.8889,1.8839,1.8841,1.8957,1.8968,1.8979,1.9028,1.9025,1.903,1.9033,1.9164,1.9164,1.9165,0,0,0,0,0,0,1.8587,1.8601,1.8733,1.8723,1.873,1.8745,1.8759,1.881,1.8877,1.8821,1.8825,1.8839,1.8941,1.8966,1.8974,1.9053,1.902,1.9024,1.9028,1.903,1.9164,1.9164,0,0,0,0,0,0,1.8594,1.8606,1.8721,1.8727,1.8733,1.8821,1.8792,1.8887,1.8866,1.8817,1.8866,1.8866,1.8938,1.8947,1.8971,1.9045,1.9051,1.902,1.9023,1.9025,1.9027,0,0,0,0,0,0,0,1.8599,1.8507,1.8684,1.873,1.8735,1.8806,1.8808,1.881,1.8866,1.8866,1.8866,1.8866,1.8993,1.8998,1.9003,1.9039,0,0,1.9019,1.9022,0,0,0,0,0,0,0,0,1.8503,1.8506,1.8684,1.8686,1.8687,1.8807,1.8808,1.881,1.8866,1.8866,1.8866,1.8866,1.8994,1.8998,1.9002,0,0,0,0,0,0,0,0,0,0,0,0,0,0,0,1.8684,1.8686,0,1.8807,1.8808,1.881,1.8866,1.8866,1.8866,1.8866,1.8995,1.8999,1.9002,0,0,0,0,0,0,0,0,0,0,0,0,0,0,0,0,0,0,0,0,0,0,0,0,0,0,0,0,0,0,0,0,0,0,0,0,0,0,0,0,0,0,0,0,0,0,0,0,0,0,0,0,0,0,0,0,0,0,0,0,0,0,0,0,0,0,0,0,0]}],[{"header":{"parameterUnit":"kt","parameterCategory":2,"dx":1,"dy":1,"la1":30.253999710083008,"la2":30.299108505249023,"lo1":-89.0895004272461,"lo2":-89.04439544677734,"nx":28,"ny":28,"refTime":"2022-10-30T21:00:00:Z","depth":0,"parameterNumber":2,"parameterNumberName":"V-component_of_WINDS"},"data":[4.2118,4.2106,4.21,4.2081,4.2072,4.2056,4.2048,4.2036,4.2024,4.2001,4.1985,4.1975,4.1958,4.1935,4.1914,4.191,4.19,4.1897,4.1891,4.1914,4.1916,4.1918,4.1922,4.1896,4.1896,4.1868,4.1868,4.1868,4.2122,4.2114,4.2105,4.2092,4.2081,4.2079,4.2067,4.2057,4.2043,4.2029,4.2016,4.1994,4.1975,4.196,4.1939,4.1927,4.1923,4.1921,4.192,4.1917,4.1941,4.1945,4.1923,4.1923,4.1923,4.1923,4.1923,4.1923,4.2127,4.2121,4.2112,4.2102,4.2095,4.2085,4.2076,4.2068,4.2057,4.204,4.2036,4.2018,4.2002,4.1977,4.1966,4.1949,4.195,4.1945,4.1943,4.1941,4.1938,4.1969,4.1946,4.1946,4.1946,4.1946,4.1946,0,4.2129,4.2126,4.212,4.2109,4.2102,4.2094,4.2086,4.2081,4.2072,4.2063,4.2049,4.2039,4.2018,4.2001,4.1982,4.1973,4.1968,4.1969,4.1965,4.1965,4.1964,4.1959,4.1994,4.197,4.197,4.1971,4.1971,4.1971,4.213,4.2128,4.2119,4.2114,4.211,4.2103,4.2097,4.2091,4.2084,4.2071,4.2065,4.205,4.2039,4.2014,4.2003,4.1987,4.1984,4.1974,4.1982,4.198,4.1978,4.1977,4.1973,4.1973,4.1972,4.1972,4.1972,0,4.2129,4.2127,4.2122,4.2115,4.2112,4.2107,4.2099,4.2093,4.2088,4.2077,4.2074,4.2065,4.205,4.2042,4.2024,4.2019,4.1998,4.1999,4.2001,4.2,4.1986,4.1986,4.1956,4.1949,4.198,4.198,4.198,0,4.2128,4.2126,4.212,4.2118,4.2112,4.211,4.2102,4.2098,4.2091,4.2083,4.208,4.2072,4.2065,4.2053,4.2047,4.203,4.2028,4.2022,4.202,4.2021,4.2021,4.2015,4.2014,4.2022,4.2022,4.2022,4.2022,0,4.2126,4.2124,4.2121,4.212,4.2115,4.2111,4.2108,4.2102,4.2097,4.209,4.2085,4.2077,4.2071,4.2061,4.2053,4.2058,4.2034,4.204,4.2027,4.2027,4.2023,4.2023,4.1999,4.2023,4.2023,4.2023,4.2023,0,4.2125,4.2124,4.2122,4.2116,4.2116,4.2115,4.2107,4.2105,4.2098,4.2096,4.209,4.2089,4.2079,4.2083,4.2066,4.2073,4.2066,4.2061,4.206,4.2057,4.2061,4.2045,4.2027,4.2022,4.2053,4.2053,4.2054,0,4.2119,4.2121,4.2122,4.212,4.2119,4.2118,4.2115,4.2112,4.211,4.2105,4.2101,4.2097,4.2099,4.2097,4.209,4.2085,4.2075,4.2086,4.207,4.2069,4.2068,4.2052,4.2051,4.2032,4.2057,4.2057,4.2057,0,4.2117,4.2118,4.2119,4.2117,4.2119,4.212,4.2118,4.2116,4.2112,4.2113,4.2107,4.2104,4.2103,4.2102,4.2101,4.2094,4.2081,4.2096,4.2096,4.2089,4.2061,4.2058,4.2055,4.2081,4.208,4.208,4.2059,0,4.2106,4.2111,4.2114,4.2118,4.2119,4.2122,4.2122,4.2122,4.2122,4.2122,4.2117,4.2117,4.2114,4.2113,4.2114,4.2104,4.2104,4.2106,4.2109,4.21,4.2093,4.209,4.2119,4.2119,4.2119,4.2119,0,0,4.2099,4.2108,4.2114,4.2117,4.2118,4.2121,4.2122,4.2124,4.2128,4.2126,4.2129,4.2125,4.2126,4.2119,4.2117,4.2118,4.2114,4.212,4.2105,4.2104,4.2102,4.2095,4.2092,4.2119,4.2119,4.2119,4.2119,0,4.2097,4.2106,4.2112,4.2114,4.2119,4.2122,4.2122,4.2128,4.2129,4.2129,4.213,4.2127,4.213,4.2127,4.2126,4.212,4.212,4.212,4.2115,4.2106,4.2105,4.2103,4.2096,4.2093,4.2119,4.2119,4.2119,0,4.2091,4.2098,4.2103,4.2114,4.2118,4.2121,4.2124,4.2129,4.2129,4.2134,4.2134,4.2135,4.2135,4.2133,4.2132,4.2134,4.2124,4.2131,4.213,4.213,4.2121,4.2119,4.2118,4.2139,4.2139,4.2139,0,0,4.2088,4.2096,4.2105,4.2115,4.2117,4.2122,4.2126,4.2128,4.2132,4.2134,4.2136,4.2136,4.2136,4.2136,4.2137,4.2136,4.2133,4.2133,4.2133,4.2132,4.2131,4.2122,4.212,4.2139,4.2139,4.2139,0,0,4.2087,4.2099,4.2101,4.2114,4.2118,4.2126,4.213,4.2131,4.2134,4.2134,4.2137,4.2138,4.2137,4.2139,4.2142,4.2137,4.214,4.214,4.2137,4.2136,4.2135,4.2133,4.2145,0,0,0,0,0,4.2088,4.2097,4.2099,4.2102,4.2118,4.2125,4.2126,4.2132,4.2132,4.2134,4.2135,4.2138,4.2139,4.2142,4.2143,4.214,4.2143,4.2142,4.2141,4.2137,4.2136,4.2135,0,0,0,0,0,0,4.209,4.2094,4.2099,4.2108,4.2111,4.2125,4.2127,4.2128,4.2132,4.2133,4.2137,4.2138,4.2141,4.2142,4.2143,4.214,4.2145,4.2142,4.2142,4.2141,4.2137,4.2136,4.2135,0,0,0,0,0,4.2091,4.2094,4.212,4.2107,4.211,4.2119,4.2127,4.2128,4.2131,4.2136,4.2137,4.2134,4.214,4.2141,4.2142,4.2139,4.2144,4.2145,4.2142,4.2142,4.2141,4.2136,0,0,0,0,0,0,4.2091,4.2093,4.212,4.2121,4.2107,4.2118,4.212,4.2128,4.2134,4.2135,4.2133,4.2133,4.214,4.2141,4.2142,4.2138,4.2144,4.2144,4.2144,4.2142,4.2141,4.2141,0,0,0,0,0,0,4.2092,4.2094,4.2121,4.212,4.212,4.2117,4.2119,4.2122,4.2134,4.213,4.2131,4.2133,4.2138,4.2141,4.2141,4.2146,4.2144,4.2144,4.2144,4.2144,4.2142,4.2141,0,0,0,0,0,0,4.2093,4.2095,4.2119,4.212,4.2121,4.2131,4.2119,4.2135,4.2136,4.213,4.2136,4.2136,4.2138,4.2139,4.2141,4.2145,4.2146,4.2144,4.2144,4.2144,4.2144,0,0,0,0,0,0,0,4.2094,4.2079,4.2115,4.212,4.2121,4.213,4.213,4.213,4.2136,4.2136,4.2136,4.2136,4.2142,4.2143,4.2143,4.2145,0,0,4.2144,4.2144,0,0,0,0,0,0,0,0,4.2078,4.2079,4.2115,4.2115,4.2116,4.213,4.213,4.213,4.2136,4.2136,4.2136,4.2136,4.2142,4.2143,4.2143,0,0,0,0,0,0,0,0,0,0,0,0,0,0,0,4.2115,4.2115,0,4.213,4.213,4.213,4.2136,4.2136,4.2136,4.2136,4.2142,4.2143,4.2143,0,0,0,0,0,0,0,0,0,0,0,0,0,0,0,0,0,0,0,0,0,0,0,0,0,0,0,0,0,0,0,0,0,0,0,0,0,0,0,0,0,0,0,0,0,0,0,0,0,0,0,0,0,0,0,0,0,0,0,0,0,0,0,0,0,0,0,0,0]}]]]